This is the latest recevied weather packets stored in our database for station/object K0VSC-1. If no packets are shown the sender has not sent any weather packets the latest 10 day(s).
| Time | Temp. | Humidity | Pressure | Rain* | Wind** | Luminosity | Snow |
|---|---|---|---|---|---|---|---|
| 1777939387 | 7.78° C | 46% | 1003.9 hPa | 0 mm | - | 77 W/m² | - |
| 1777939087 | 7.78° C | 44% | 1003.8 hPa | 0 mm | - | 69 W/m² | - |
| 1777938787 | 7.78° C | 44% | 1003.8 hPa | 0 mm | - | 84 W/m² | - |
| 1777938487 | 7.78° C | 44% | 1003.9 hPa | 0 mm | - | 90 W/m² | - |
| 1777938187 | 7.78° C | 44% | 1003.8 hPa | 0 mm | - | 121 W/m² | - |
| 1777937887 | 7.78° C | 44% | 1003.9 hPa | 0 mm | - | 114 W/m² | - |
| 1777937587 | 7.78° C | 44% | 1003.8 hPa | 0 mm | - | 107 W/m² | - |
| 1777937287 | 8.33° C | 44% | 1003.8 hPa | 0 mm | - | 102 W/m² | - |
| 1777936987 | 8.33° C | 45% | 1003.8 hPa | 0 mm | - | 292 W/m² | - |
| 1777936687 | 7.78° C | 44% | 1003.7 hPa | 0 mm | - | 188 W/m² | - |
| 1777936387 | 7.78° C | 44% | 1003.8 hPa | 0 mm | - | 137 W/m² | - |
| 1777936087 | 7.78° C | 45% | 1003.8 hPa | 0 mm | - | 142 W/m² | - |
| 1777935787 | 7.78° C | 46% | 1003.9 hPa | 0 mm | - | 171 W/m² | - |
| 1777935487 | 7.78° C | 45% | 1003.7 hPa | 0 mm | - | 202 W/m² | - |
| 1777935187 | 7.78° C | 44% | 1003.7 hPa | 0 mm | - | 211 W/m² | - |
| 1777934887 | 7.78° C | 46% | 1003.6 hPa | 0 mm | - | 167 W/m² | - |
| 1777934587 | 7.78° C | 47% | 1003.7 hPa | 0 mm | - | 134 W/m² | - |
| 1777934287 | 7.78° C | 46% | 1003.7 hPa | 0 mm | - | 130 W/m² | - |
| 1777933987 | 7.78° C | 45% | 1003.5 hPa | 0 mm | - | 144 W/m² | - |
| 1777933687 | 7.78° C | 46% | 1003.4 hPa | 0 mm | - | 160 W/m² | - |
| 1777933387 | 7.78° C | 46% | 1003.4 hPa | 0 mm | - | 223 W/m² | - |
| 1777933087 | 8.33° C | 46% | 1003.2 hPa | 0 mm | - | 178 W/m² | - |
| 1777932787 | 8.33° C | 47% | 1003.1 hPa | 0 mm | - | 255 W/m² | - |
| 1777932487 | 8.33° C | 45% | 1003 hPa | 0 mm | - | 213 W/m² | - |
| 1777932187 | 8.33° C | 44% | 1002.9 hPa | 0 mm | - | 272 W/m² | - |
* Rain latest hour (hover to see other rain measurements)
** Current wind speed in m/s (hover to see current wind gust speed)